�������l�o���
Date,Time,MP-1(��Sv/h),MP-2(��Sv/h),MP-3(��Sv/h),MP-4(��Sv/h),MP-5(��Sv/h),MP-6(��Sv/h),MP-7(��Sv/h),MP-8(��Sv/h),����,����(m/s),���J
2019/09/29,00:00,0.744,1.057,0.730,1.294,0.955,0.423,0.736,0.694,��,5.7,��
2019/09/29,00:10,0.743,1.057,0.729,1.294,0.952,0.423,0.736,0.695,��쓌,6.3,��
2019/09/29,00:20,0.744,1.055,0.728,1.297,0.953,0.422,0.735,0.695,��쓌,6.4,�L
2019/09/29,00:30,0.745,1.057,0.728,1.295,0.952,0.422,0.734,0.695,��,3.8,��
2019/09/29,00:40,0.744,1.061,0.729,1.296,0.952,0.423,0.734,0.695,��,4.1,�L
2019/09/29,00:50,0.744,1.057,0.730,1.296,0.950,0.422,0.735,0.694,��,5.3,��
2019/09/29,01:00,0.746,1.057,0.728,1.296,0.951,0.421,0.735,0.693,��,5.9,��
2019/09/29,01:10,0.743,1.058,0.730,1.294,0.951,0.423,0.734,0.695,��,5.8,�L
2019/09/29,01:20,0.743,1.054,0.730,1.295,0.952,0.423,0.735,0.695,��,5.5,��
2019/09/29,01:30,0.743,1.059,0.729,1.295,0.953,0.423,0.734,0.695,��,5.7,��
2019/09/29,01:40,0.744,1.057,0.731,1.297,0.952,0.423,0.735,0.694,��,5.2,��
2019/09/29,01:50,0.743,1.057,0.729,1.298,0.954,0.424,0.736,0.695,��,5.4,��
2019/09/29,02:00,0.746,1.058,0.730,1.296,0.952,0.422,0.735,0.695,��쐼,5.6,��
2019/09/29,02:10,0.742,1.056,0.728,1.295,0.953,0.424,0.735,0.694,��,5.8,��
2019/09/29,02:20,0.745,1.057,0.729,1.293,0.952,0.424,0.735,0.694,��쐼,5.6,��
2019/09/29,02:30,0.743,1.056,0.728,1.295,0.953,0.422,0.734,0.694,��쐼,4.8,��
2019/09/29,02:40,0.742,1.057,0.730,1.296,0.953,0.424,0.736,0.694,��,4.6,��
2019/09/29,02:50,0.743,1.055,0.728,1.295,0.952,0.422,0.735,0.694,��,5.4,��
2019/09/29,03:00,0.742,1.056,0.728,1.295,0.952,0.423,0.736,0.695,��,5.3,��
2019/09/29,03:10,0.744,1.058,0.729,1.295,0.951,0.422,0.735,0.696,��,5.2,��
2019/09/29,03:20,0.745,1.058,0.728,1.294,0.952,0.422,0.734,0.695,��쓌,4.9,��
2019/09/29,03:30,0.746,1.058,0.729,1.297,0.953,0.422,0.735,0.693,��,4.6,��
2019/09/29,03:40,0.744,1.056,0.726,1.293,0.952,0.422,0.733,0.694,��쓌,5.3,��
2019/09/29,03:50,0.745,1.056,0.729,1.297,0.953,0.423,0.735,0.695,��,4.9,��
2019/09/29,04:00,0.745,1.053,0.729,1.293,0.953,0.422,0.734,0.696,��,5.1,��
2019/09/29,04:10,0.745,1.055,0.728,1.293,0.952,0.422,0.736,0.696,��,5.3,��
2019/09/29,04:20,0.743,1.057,0.728,1.295,0.951,0.421,0.735,0.696,��,6.2,��
2019/09/29,04:30,0.745,1.056,0.729,1.292,0.953,0.421,0.734,0.695,��,4.7,��
2019/09/29,04:40,0.744,1.058,0.730,1.295,0.950,0.423,0.736,0.695,��쓌,3.8,��
2019/09/29,04:50,0.743,1.058,0.730,1.294,0.953,0.420,0.735,0.695,��,5.7,��
2019/09/29,05:00,0.746,1.054,0.729,1.295,0.952,0.423,0.736,0.695,��,6.1,��
2019/09/29,05:10,0.749,1.055,0.730,1.294,0.952,0.422,0.734,0.693,��,5.5,��
2019/09/29,05:20,0.746,1.056,0.729,1.294,0.951,0.421,0.734,0.695,��,4.9,��
2019/09/29,05:30,0.745,1.056,0.731,1.297,0.950,0.420,0.734,0.695,��,6.0,��
2019/09/29,05:40,0.747,1.058,0.729,1.293,0.952,0.422,0.735,0.696,��,6.7,��
2019/09/29,05:50,0.745,1.056,0.730,1.296,0.952,0.422,0.735,0.695,��,6.6,��
2019/09/29,06:00,0.745,1.056,0.729,1.295,0.951,0.422,0.736,0.695,��,6.9,��
2019/09/29,06:10,0.745,1.057,0.730,1.295,0.952,0.423,0.735,0.695,��,6.4,��
2019/09/29,06:20,0.744,1.057,0.729,1.295,0.951,0.423,0.735,0.694,��,5.6,��
2019/09/29,06:30,0.743,1.055,0.730,1.295,0.954,0.423,0.735,0.694,��,4.3,��
2019/09/29,06:40,0.746,1.056,0.729,1.295,0.952,0.424,0.734,0.694,��,3.5,��
2019/09/29,06:50,0.744,1.057,0.729,1.294,0.954,0.421,0.736,0.694,��,3.3,��
2019/09/29,07:00,0.742,1.055,0.731,1.297,0.952,0.423,0.735,0.694,��,4.0,��
2019/09/29,07:10,0.744,1.056,0.730,1.295,0.953,0.422,0.735,0.696,��,3.0,��
2019/09/29,07:20,0.745,1.054,0.730,1.297,0.952,0.422,0.736,0.697,��쓌,2.6,��
2019/09/29,07:30,0.745,1.054,0.729,1.297,0.952,0.422,0.735,0.695,��,2.3,��
2019/09/29,07:40,0.745,1.056,0.729,1.295,0.952,0.421,0.736,0.695,��쓌,1.7,��
2019/09/29,07:50,0.746,1.056,0.729,1.296,0.952,0.420,0.735,0.696,��,1.5,��
2019/09/29,08:00,0.746,1.058,0.730,1.297,0.955,0.423,0.735,0.695,�쓌,0.8,��
2019/09/29,08:10,0.748,1.060,0.731,1.296,0.952,0.422,0.734,0.695,-,CALM,��
2019/09/29,08:20,0.746,1.057,0.729,1.298,0.952,0.423,0.735,0.697,�k�k��,1.9,��
2019/09/29,08:30,0.749,1.058,0.728,1.297,0.952,0.421,0.735,0.695,�k�k��,2.0,��
2019/09/29,08:40,0.748,1.057,0.729,1.297,0.952,0.423,0.733,0.694,�k,1.1,��
2019/09/29,08:50,0.745,1.056,0.728,1.299,0.954,0.422,0.733,0.693,-,CALM,��
2019/09/29,09:00,0.746,1.056,0.729,1.296,0.950,0.421,0.736,0.693,-,CALM,��
2019/09/29,09:10,0.745,1.056,0.730,1.298,0.952,0.422,0.736,0.692,-,CALM,��
2019/09/29,09:20,0.745,1.055,0.728,1.299,0.954,0.422,0.734,0.692,-,CALM,��
2019/09/29,09:30,0.746,1.056,0.728,1.297,0.955,0.422,0.734,0.693,�쓌,0.9,�L
2019/09/29,09:40,0.746,1.055,0.732,1.293,0.956,0.422,0.737,0.693,���k��,1.2,�L
2019/09/29,09:50,0.743,1.055,0.729,1.298,0.955,0.421,0.733,0.692,���쓌,2.0,�L
2019/09/29,10:00,0.747,1.059,0.729,1.299,0.952,0.422,0.736,0.694,��쓌,2.3,�L
2019/09/29,10:10,0.744,1.059,0.728,1.297,0.956,0.422,0.734,0.694,�쓌,1.2,��
2019/09/29,10:20,0.747,1.057,0.729,1.297,0.954,0.422,0.736,0.693,��,1.7,��
2019/09/29,10:30,0.743,1.057,0.728,1.295,0.952,0.422,0.733,0.694,���쓌,2.0,��
2019/09/29,10:40,0.746,1.056,0.728,1.297,0.951,0.420,0.733,0.693,�쓌,2.0,��
2019/09/29,10:50,0.746,1.058,0.726,1.295,0.954,0.421,0.735,0.694,���쓌,1.5,�L
2019/09/29,11:00,0.745,1.058,0.728,1.295,0.953,0.423,0.736,0.694,���k��,1.4,�L
2019/09/29,11:10,0.747,1.057,0.728,1.296,0.953,0.421,0.736,0.693,�k��,0.9,�L
2019/09/29,11:20,0.744,1.053,0.727,1.295,0.953,0.424,0.735,0.692,��,0.8,�L
2019/09/29,11:30,0.745,1.056,0.727,1.295,0.953,0.423,0.737,0.693,��쓌,2.6,�L
2019/09/29,11:40,0.744,1.053,0.727,1.296,0.952,0.423,0.735,0.692,��쓌,2.2,��
2019/09/29,11:50,0.745,1.053,0.727,1.296,0.954,0.421,0.734,0.692,��쓌,1.1,�L
2019/09/29,12:00,0.745,1.053,0.726,1.295,0.950,0.423,0.735,0.694,-,CALM,�L
2019/09/29,12:10,0.743,1.050,0.726,1.297,0.950,0.423,0.734,0.692,-,CALM,�L
2019/09/29,12:20,0.743,1.053,0.727,1.293,0.951,0.423,0.735,0.693,�쐼,0.9,��
2019/09/29,12:30,0.744,1.051,0.729,1.296,0.949,0.423,0.735,0.694,��쐼,0.9,��
2019/09/29,12:40,0.745,1.051,0.728,1.295,0.952,0.422,0.732,0.693,��,0.9,��
2019/09/29,12:50,0.743,1.053,0.726,1.297,0.954,0.422,0.735,0.693,��쓌,2.5,�L
2019/09/29,13:00,0.747,1.054,0.727,1.297,0.954,0.422,0.736,0.694,�쓌,2.2,�L
2019/09/29,13:10,0.746,1.054,0.726,1.293,0.951,0.422,0.735,0.694,�쓌,2.3,�L
2019/09/29,13:20,0.746,1.053,0.726,1.294,0.951,0.425,0.736,0.694,��쓌,3.3,��
2019/09/29,13:30,0.747,1.055,0.728,1.295,0.951,0.423,0.735,0.694,��쓌,5.1,��
2019/09/29,13:40,0.743,1.054,0.727,1.293,0.951,0.425,0.736,0.693,��쓌,6.2,��
2019/09/29,13:50,0.746,1.055,0.729,1.292,0.952,0.422,0.738,0.692,��쓌,6.5,��
2019/09/29,14:00,0.747,1.055,0.729,1.295,0.953,0.423,0.738,0.693,��쓌,7.4,��
2019/09/29,14:10,0.746,1.056,0.729,1.295,0.953,0.422,0.737,0.695,��쓌,8.4,��
2019/09/29,14:20,0.746,1.056,0.728,1.296,0.955,0.422,0.734,0.693,��,6.2,��
2019/09/29,14:30,0.747,1.056,0.728,1.294,0.953,0.421,0.736,0.694,��,5.4,��
2019/09/29,14:40,0.746,1.056,0.727,1.296,0.953,0.424,0.737,0.693,��,5.3,��
2019/09/29,14:50,0.747,1.057,0.729,1.295,0.954,0.423,0.738,0.694,��,5.4,��
2019/09/29,15:00,0.745,1.055,0.727,1.294,0.953,0.423,0.736,0.692,��,5.8,��
2019/09/29,15:10,0.747,1.058,0.728,1.295,0.956,0.424,0.737,0.694,��,5.9,��
2019/09/29,15:20,0.746,1.056,0.729,1.295,0.956,0.424,0.738,0.693,��,4.5,��
2019/09/29,15:30,0.746,1.057,0.729,1.296,0.956,0.425,0.735,0.695,��,4.5,��
2019/09/29,15:40,0.748,1.058,0.729,1.296,0.956,0.424,0.735,0.693,��,4.3,��
2019/09/29,15:50,0.746,1.059,0.731,1.296,0.954,0.424,0.736,0.693,��,4.6,��
2019/09/29,16:00,0.745,1.056,0.730,1.296,0.955,0.426,0.737,0.694,��,5.0,��
2019/09/29,16:10,0.746,1.057,0.732,1.296,0.957,0.425,0.736,0.693,��쐼,4.3,��
2019/09/29,16:20,0.747,1.060,0.730,1.296,0.954,0.426,0.738,0.694,��쐼,3.8,��
2019/09/29,16:30,0.748,1.061,0.731,1.298,0.958,0.427,0.737,0.694,��쐼,3.6,��
2019/09/29,16:40,0.748,1.058,0.731,1.297,0.956,0.426,0.738,0.695,��쐼,3.0,��
2019/09/29,16:50,0.747,1.060,0.731,1.299,0.954,0.425,0.737,0.694,��쐼,3.2,��
2019/09/29,17:00,0.747,1.059,0.730,1.296,0.955,0.426,0.736,0.697,��쐼,2.8,��
2019/09/29,17:10,0.748,1.061,0.730,1.296,0.956,0.426,0.738,0.697,��쐼,2.5,��
2019/09/29,17:20,0.746,1.063,0.732,1.299,0.956,0.425,0.739,0.695,�쐼,2.2,��
2019/09/29,17:30,0.746,1.058,0.730,1.299,0.956,0.427,0.738,0.698,�쐼,1.7,��
2019/09/29,17:40,0.748,1.060,0.731,1.297,0.956,0.427,0.738,0.696,��,0.9,�L
2019/09/29,17:50,0.748,1.056,0.728,1.295,0.952,0.426,0.736,0.695,��,2.9,�L
2019/09/29,18:00,0.747,1.059,0.728,1.297,0.952,0.426,0.738,0.694,��,3.4,�L
2019/09/29,18:10,0.745,1.056,0.729,1.296,0.951,0.427,0.736,0.695,���k��,4.2,�L
2019/09/29,18:20,0.746,1.058,0.731,1.296,0.949,0.424,0.737,0.695,�k�k��,1.1,�L
2019/09/29,18:30,0.743,1.051,0.729,1.291,0.946,0.427,0.738,0.693,�k�k��,4.2,�L
2019/09/29,18:40,0.741,1.052,0.726,1.290,0.943,0.425,0.733,0.693,�k�k��,4.1,�L
2019/09/29,18:50,0.740,1.050,0.726,1.288,0.938,0.425,0.734,0.693,�k��,3.4,�L
2019/09/29,19:00,0.738,1.047,0.725,1.287,0.940,0.424,0.732,0.694,�k��,3.0,�L
2019/09/29,19:10,0.739,1.044,0.724,1.287,0.939,0.425,0.734,0.692,�k�k��,2.2,��
2019/09/29,19:20,0.740,1.042,0.723,1.289,0.936,0.424,0.733,0.691,�k�k��,1.2,��
2019/09/29,19:30,0.737,1.045,0.725,1.288,0.939,0.423,0.731,0.689,�k��,1.5,��
2019/09/29,19:40,0.738,1.042,0.725,1.286,0.936,0.422,0.732,0.692,��,2.9,��
2019/09/29,19:50,0.739,1.046,0.722,1.287,0.938,0.423,0.733,0.691,���쐼,3.0,��
2019/09/29,20:00,0.738,1.045,0.724,1.287,0.935,0.423,0.731,0.690,���쐼,5.4,��
2019/09/29,20:10,0.738,1.045,0.723,1.285,0.937,0.423,0.733,0.691,���쐼,4.8,��
2019/09/29,20:20,0.738,1.043,0.724,1.283,0.937,0.422,0.731,0.693,��,2.8,��
2019/09/29,20:30,0.738,1.043,0.723,1.287,0.936,0.423,0.731,0.691,���k��,5.2,��
2019/09/29,20:40,0.737,1.043,0.725,1.287,0.939,0.421,0.730,0.691,���k��,4.8,��
2019/09/29,20:50,0.739,1.044,0.723,1.288,0.938,0.420,0.730,0.692,���k��,4.0,��
2019/09/29,21:00,0.739,1.044,0.723,1.285,0.939,0.421,0.732,0.692,���k��,3.8,��
2019/09/29,21:10,0.737,1.044,0.724,1.291,0.937,0.422,0.733,0.692,���k��,3.5,��
2019/09/29,21:20,0.739,1.044,0.724,1.287,0.937,0.420,0.732,0.692,��,3.7,��
2019/09/29,21:30,0.739,1.043,0.724,1.286,0.937,0.421,0.732,0.692,��,4.5,��
2019/09/29,21:40,0.739,1.045,0.724,1.286,0.936,0.421,0.733,0.693,��,4.7,��
2019/09/29,21:50,0.738,1.044,0.724,1.288,0.938,0.421,0.732,0.693,��,4.7,��
2019/09/29,22:00,0.739,1.044,0.726,1.287,0.938,0.421,0.733,0.692,��,5.4,��
2019/09/29,22:10,0.739,1.044,0.724,1.288,0.938,0.421,0.732,0.694,��,5.1,��
2019/09/29,22:20,0.740,1.043,0.725,1.289,0.936,0.420,0.734,0.692,���쐼,4.5,��
2019/09/29,22:30,0.741,1.045,0.724,1.288,0.937,0.420,0.732,0.692,��,3.6,��
2019/09/29,22:40,0.740,1.044,0.724,1.288,0.938,0.422,0.732,0.692,���k��,3.6,��
2019/09/29,22:50,0.739,1.044,0.725,1.288,0.938,0.421,0.731,0.693,�k��,4.1,��
2019/09/29,23:00,0.738,1.041,0.723,1.289,0.938,0.421,0.732,0.691,�k��,4.5,��
2019/09/29,23:10,0.740,1.042,0.727,1.288,0.939,0.422,0.733,0.692,�k��,5.2,��
2019/09/29,23:20,0.740,1.045,0.726,1.285,0.939,0.421,0.732,0.692,���k��,4.7,��
2019/09/29,23:30,0.740,1.043,0.723,1.290,0.939,0.421,0.733,0.692,���k��,4.6,��
2019/09/29,23:40,0.739,1.046,0.726,1.287,0.937,0.421,0.731,0.692,��,4.6,��
2019/09/29,23:50,0.742,1.043,0.724,1.287,0.938,0.422,0.734,0.693,���k��,5.1,��
